Regional Weather Roundup
Issued by NWS State College, PA

Home | Current Version | Previous Version | Text Only | Print | Product List | Glossary On
Versions: 1 2 3 4 5 6 7 8 9 10 11 12 13 14 15 16 17 18 19 20 21 22 23 24 25 26 27 28 29 30 31 32 33 34 35 36 37 38 39 40 41 42 43 44 45 46 47 48 49 50
000
ASUS41 KCTP 272103
RWRCTP

REGIONAL WEATHER ROUNDUP
NATIONAL WEATHER SERVICE STATE COLLEGE PA
500 PM EDT TUE SEP 27 2016

Note: "fair" indicates few or no clouds below 12,000 feet with no
significant weather and/or obstructions to visibility.

* = STATION THAT DOES NOT REPORT PRECIPITATION /E.G. RAIN...SNOW...ETC/
    THUNDER OR FOG.

PAZ002>004-007>009-013>016-020>023-029>032-272200-
WESTERN PENNSYLVANIA

CITY           SKY/WX    TMP DP  RH WIND       PRES   REMARKS
ERIE           SUNNY     72  43  35 SW15      29.79S
MEADVILLE      MOSUNNY   67  39  35 S14G23    29.83S
FRANKLIN*        N/A     66  37  34 SW14G21   29.86S
NEW CASTLE     FAIR      70  42  36 SW13      29.85S
BEAVER COUNTY  SUNNY     72  39  30 SW12G18   29.86S
BUTLER*        SUNNY     70  37  30 SW13      29.88F
PITTSBURGH INT MOSUNNY   71  33  24 SW14G20   29.85F
PITTSBURGH     SUNNY     71  34  25 SW15      29.87S
INDIANA*       SUNNY     70  41  35 SW9       29.90F
LATROBE        SUNNY     72  37  28 SW14      29.88F
WASHINGTON CO* SUNNY     72  39  30 SW8G16    29.88F
$$

PAZ004>006-010>012-017>019-024>028-033>037-041-042-045-046-049>053-272200-
CENTRAL PENNSYLVANIA

CITY           SKY/WX    TMP DP  RH WIND       PRES   REMARKS
BRADFORD       MOSUNNY   64  37  36 VRB7      29.87S
DUBOIS         SUNNY     67  35  30 SW13G23   29.87S
CLEARFIELD     SUNNY     69  39  33 SW13      29.89S
JOHNSTOWN      SUNNY     66  40  38 W12       29.90F
ALTOONA        SUNNY     71  39  31 SW10      29.89S
STATE COLLEGE  MOSUNNY   70  41  35 SW7       29.88F
WILLIAMSPORT   MOSUNNY   71  50  47 S5        29.85S
SELINSGROVE    SUNNY     74  46  36 SW8       29.87F
FT INDIANTOWN  SUNNY     73  44  35 S3        29.88F
CAPITAL CITY   SUNNY     76  40  27 W3        29.87F
HARRISBURG     SUNNY     76  46  34 CALM      29.86F
YORK           SUNNY     74  46  36 VRB5      29.88F
$$

PAZ038>040-043-044-047-048-054-055-060>062-067>071-272200-
EASTERN PENNSYLVANIA

CITY           SKY/WX    TMP DP  RH WIND       PRES   REMARKS
SCRANTON       SUNNY     71  45  39 SW9       29.89R
MOUNT POCONO   MOSUNNY   65  47  52 SW6       29.92S
ALLENTOWN      SUNNY     74  44  34 SW10      29.88F
QUAKERTOWN*    CLEAR     73  46  38 W5        29.90S
READING        SUNNY     74  46  36 SW7       29.88S
LANCASTER      SUNNY     75  47  36 S7        29.88F
COATESVILLE    CLEAR     72  48  43 CALM      29.91S
POTTSTOWN      SUNNY     73  45  36 SW6       29.90F
BLUE BELL      SUNNY     73  46  38 CALM      29.88S
DOYLESTOWN     SUNNY     75  45  34 SW6       29.89S
WILLOW GROVE   NOT AVBL
NORTH PHILA    SUNNY     77  51  40 MISG      29.90F
PHILADELPHIA   MOSUNNY   75  51  43 SW8       29.89F
$$




USA.gov is the U.S. government's official web portal to all federal, state and local government web resources and services.